This demonstration page uses our WeatherBlox Daily Observations layout. Learn more.

41.86663, -103.66717

Hourly Observations for June 13, 2019

Temp ( °F °C ) Dew Point ( °F °C ) Humidity (%) Winds ( mph kmh ) Pressure ( in mb ) Visibility ( mi km ) Precip ( " mm )
12:53 am 00:53 Clear 53 11.7 44 6.7 72 72 ESE 8 13 30.01 1016 10 16.0934 0 0
1:53 am 01:53 Clear 52 11.1 44 6.7 75 75 ESE 7 11 30 1016 10 16.0934 0 0
2:53 am 02:53 Clear 50 10 43 6.1 77 77 E 8 13 29.99 1016 10 16.0934 0 0
3:53 am 03:53 Clear 50 10 43 6.1 77 77 E 10 17 29.96 1015 10 16.0934 0 0
4:53 am 04:53 Clear 51 10.6 43 6.1 74 74 E 8 13 29.93 1014 10 16.0934 0 0
5:53 am 05:53 Partly Cloudy 54 12.2 43 6.1 67 67 E 9 15 29.92 1013 10 16.0934 0 0
6:53 am 06:53 Sunny 59 15 47 8.3 64 64 SE 6 9 29.91 1013 10 16.0934 0 0
7:53 am 07:53 Mostly Sunny 65 18.3 50 10 59 59 SSE 8 13 29.88 1012 10 16.0934 0 0
8:53 am 08:53 Sunny 69 20.6 52 11.1 55 55 S 7 11 29.86 1011 10 16.0934 0 0
9:53 am 09:53 Sunny 72 22.2 55 12.8 55 55 SE 3 6 29.86 1011 10 16.0934 0 0
10:53 am 10:53 Sunny 78 25.6 59 15 52 52 VRB 3 6 29.82 1010 10 16.0934 0 0
11:53 am 11:53 Sunny 81 27.2 63 17.2 54 54 VRB 7 11 29.79 1009 10 16.0934 0 0
12:53 pm 12:53 Sunny 84 28.9 66 18.9 55 55 VRB 7 11 29.76 1008 10 16.0934 0 0
1:53 pm 13:53 Sunny 85 29.4 69 20.6 59 59 SW 12 19 29.74 1007 10 16.0934 0 0
2:53 pm 14:53 Sunny 86 30 68 20 55 55 VRB 5 7 29.72 1007 10 16.0934 0 0
3:44 pm 15:44 Partly Cloudy 83 28.3 65 18.3 55 55 SSW 17 28 29.53 1000 10 16.0934 0 0
3:53 pm 15:53 Mostly Sunny 83 28.3 65 18.3 55 55 SW 15 24 29.71 1006 10 16.0934 0 0
4:53 pm 16:53 Mostly Sunny 81 27.2 62 16.7 53 53 SSW 14 22 29.68 1005 10 16.0934 0 0
5:02 pm 17:02 Mostly Cloudy with Nearby Thunderstorms 81 27 61 16 51 51 SSW 16 26 29.51 999 10 16.0934 0 0
5:20 pm 17:20 Cloudy with Light Thunderstorms 78 25.6 60 15.6 54 54 SW 13 20 29.56 1001 9 14.48406 0 0.0254
5:48 pm 17:48 Cloudy with Nearby Thunderstorms 70 21 55 13 60 60 NNW 31 50 29.67 1005 9 14.48406 0.01 0.254
5:49 pm 17:49 Cloudy with Nearby Thunderstorms 68 20 56 13.3 65 65 NW 36 57 29.78 1009 8 12.87472 0.01 0.254
5:55 pm 17:55 Windy with Storms Likely 65 18.3 57 13.9 76 76 NNW 26 43 29.74 1007 8 12.87472 0 0.0254
6:02 pm 18:02 Windy with Storms Likely 64 17.8 57 13.9 78 78 N 23 37 29.72 1007 10 16.0934 0 0.0254
6:15 pm 18:15 Partly Cloudy 65 18.3 55 12.8 70 70 N 17 28 29.7 1006 10 16.0934 0 0.0254
6:53 pm 18:53 Sunny 66 18.9 56 13.3 70 70 NE 13 20 29.76 1008 10 16.0934 0 0.0254
7:53 pm 19:53 Mostly Cloudy 65 18.3 57 13.9 76 76 SE 8 13 29.76 1008 10 16.0934 0 0
8:53 pm 20:53 Cloudy with Light Rain 63 17.2 60 15.6 90 90 SSW 10 17 29.81 1009 5 8.0467 0.02 0.508
9:27 pm 21:27 Mostly Clear with Nearby Thunderstorms 62 16.7 59 15 90 90 Calm 29.75 1007 10 16.0934 0.07 1.778
9:42 pm 21:42 Clear 62 16.7 59 15 90 90 S 5 7 29.75 1007 10 16.0934 0.07 1.778
9:53 pm 21:53 Clear 61 16.1 59 15 93 93 ESE 3 6 29.75 1008 10 16.0934 0.07 1.778
10:53 pm 22:53 Clear 58 14.4 57 13.9 97 97 Calm 29.74 1007 10 16.0934 0 0
11:53 pm 23:53 Clear 57 13.9 56 13.3 96 96 E 5 7 29.74 1007 10 16.0934 0 0

Powered by AerisWeather